Regional Weather Roundup
Issued by NWS Charleston, WV

Home | Current Version | Previous Version | Text Only | Print | Product List | Glossary Off
Versions: 1 2 3 4 5 6 7 8 9 10 11 12 13 14 15 16 17 18 19 20 21 22 23 24 25 26 27 28 29 30 31 32 33 34 35 36 37 38 39 40 41 42 43 44 45 46 47 48 49 50

880
ASUS41 KRLX 011110
RWRRLX
West Virginia Regional Weather Roundup
National Weather Service Charleston WV
600 AM EST WED MAR 01 2017

Note: "fair" indicates few or no clouds below 12,000 feet with no
significant weather and/or obstructions to visibility.

WVZ003-011200-
Northern Panhandle of West Virginia

CITY           SKY/WX    TMP DP  RH WIND       PRES   REMARKS
WHEELING       RAIN      58  55  90 SW20G30   29.67S FOG
$$

WVZ009-011200-
Northwest West Virginia

CITY           SKY/WX    TMP DP  RH WIND       PRES   REMARKS
PARKERSBURG    TSTM      61  58  90 SW9       29.71F FOG
$$

WVZ006-011200-
Western West Virginia

CITY           SKY/WX    TMP DP  RH WIND       PRES   REMARKS
HUNTINGTON     CLOUDY    66  57  72 SW14G26   29.69F
$$

WVZ015-011200-
West Central West Virginia

CITY           SKY/WX    TMP DP  RH WIND       PRES   REMARKS
CHARLESTON     CLOUDY    66  55  67 S18G26    29.71F
$$

WVZ022-031-011200-
North Central West Virginia

CITY           SKY/WX    TMP DP  RH WIND       PRES   REMARKS
CLARKSBURG     CLOUDY    62  56  80 S17       29.71F
MORGANTOWN     LGT RAIN  61  56  83 S13G21    29.71R
$$

WVZ025-035-042-045-011200-
Southern West Virginia

CITY           SKY/WX    TMP DP  RH WIND       PRES   REMARKS
BECKLEY        CLOUDY    61  52  72 SW16G29   29.86F
LOGAN          CLOUDY    64  55  72 S13G23    29.79S
BLUEFIELD      CLOUDY    58  50  75 SW15G22   29.91F
LEWISBURG      CLOUDY    46  46  99 CALM      29.88F FOG
$$

WVZ047-011200-
Northern Mountains of West Virginia

CITY           SKY/WX    TMP DP  RH WIND       PRES   REMARKS
ELKINS         CLOUDY    62  52  69 S9        29.77F
$$

WVZ052-011200-
Eastern Panhandle of West Virginia

CITY           SKY/WX    TMP DP  RH WIND       PRES   REMARKS
MARTINSBURG    CLOUDY    52  50  93 S6        29.77F
PETERSBURG     MOCLDY    59  54  82 S8G18     29.76F
$$




USA.gov is the U.S. government's official web portal to all federal, state and local government web resources and services.